Temp_Advection
nan nan nan nan nan nan nan nan nan nan nan nan nan nan nan nan nan nan nan nan nan nan nan nan nan nan nan nan nan nan nan nan nan nan nan nan nan nan nan nan nan nan nan
nan 0 -0 0 -0 -0 0 0 0 0 0 0 0 0 -0 -0 -0 -0 0 -0 -0 0 -0 -0 0 -0 0 -0 0 0 -0 0 0 -0 -0 0 0 0 0 0 0 -0 nan
nan 0 0 0 -0 -0 0 0 0 0 0 0 0 0 -0 -0 -0 -0 -0 -0 -0 0 -0 -0 0 0 0 0 0 0 0 -0 0 0 0 -0 0 0 0 0 0 -0 nan
nan 0 0 0 -0 -0 0 0 -0 0 0 0 0 0 0 -0 -0 -0 -0 0 -0 0 0 0 0 0 0 -0 -0 0 0 0 -0 -0 -0 0 -0 -0 0 0 -0 -0 nan
nan 0 -0 0 0 -0 0 0 0 0 -0 -0 0 0 0 0 -0 0 0 0 0 -0 0 0 -0 -0 0 0 -0 0 0 0 0 -0 0 0 -0 -0 -0 -0 -0 -0 nan
nan 0 0 0 0 0 0 -0 0 0 0 0 -0 -0 0 -0 0 0 0 0 0 0 0 -0 -0 0 0 0 0 0 0 0 0 0 0 0 -0 -0 -0 0 0 0 nan
nan 0 -0 -0 0 0 -0 -0 0 0 0 0 -0 -0 -0 -0 -0 0 0 0 -0 0 0 -0 -0 -0 0 0 0 -0 0 0 0 0 0 -0 -0 -0 0 0 0 0 nan
nan -0 -0 -0 -0 -0 0 0 0 -0 -0 -0 0 0 0 0 0 0 -0 0 0 0 -0 -0 -0 -0 -0 0 0 0 -0 -0 -0 -0 -0 -0 -0 -0 0 0 0 0 nan
nan 0 0 -0 -0 -0 -0 0 0 -0 -0 0 0 -0 0 0 0 0 0 -0 0 0 0 -0 -0 0 0 -0 0 0 0 0 -0 -0 -0 -0 -0 -0 0 0 0 0 nan
nan -0 0 0 0 -0 -0 -0 -0 0 0 0 -0 -0 0 0 -0 0 -0 -0 -0 0 0 0 -0 -0 0 0 0 0 0 0 -0 -0 -0 -0 0 -0 0 0 0 0 nan
nan -0 -0 -0 0 0 0 -0 -0 -0 0 0 -0 -0 -0 -0 -0 -0 0 0 -0 -0 0 0 0 -0 -0 0 0 0 0 -0 -0 -0 -0 0 0 0 -0 0 0 0 nan
nan -0 -0 -0 -0 -0 -0 0 0 0 -0 -0 -0 0 0 -0 -0 0 0 -0 0 -0 -0 -0 0 0 0 -0 -0 0 -0 -0 -0 -0 0 0 0 0 0 0 0 0 nan
nan -0 -0 -0 -0 -0 -0 -0 -0 0 0 0 -0 -0 0 0 0 -0 -0 -0 -0 0 0 -0 0 -0 -0 0 -0 -0 0 -0 -0 0 0 0 0 0 0 0 -0 0 nan
nan -0 -0 -0 -0 -0 -0 -0 -0 -0 -0 0 0 0 0 -0 -0 0 0 0 0 0 0 -0 -0 -0 -0 -0 0 0 -0 -0 -0 -0 0 0 0 0 0 0 0 0 nan
nan -0 -0 -0 -0 -0 -0 -0 -0 -0 -0 -0 -0 0 0 -0 -0 -0 0 1 0 0 0 -0 -0 -0 -0 -0 -0 0 0 -0 -0 -0 -0 0 0 0 0 0 0 0 nan
nan -0 -0 -0 -0 -0 -0 -0 -0 0 0 0 -0 -0 -0 0 0 0 0 0 0 -0 0 0 0 -0 -0 -0 -0 -0 0 0 -0 -1 -0 0 0 0 0 0 0 0 nan
nan -0 -0 -0 -0 -0 -0 -0 -0 -0 -0 -0 0 0 0 0 -0 0 0 0 0 0 0 -0 0 0 -0 -1 -1 -0 -0 0 0 0 -0 -1 -0 0 0 0 0 0 nan
nan -0 -0 -1 -1 -1 -1 -1 -1 -1 -0 -1 -0 -0 0 0 0 0 -0 -0 0 0 -0 0 1 0 -0 -1 -0 -0 -0 -0 -0 0 0 0 -1 -0 0 0 0 0 nan
nan -1 -1 -1 -1 -1 -1 -1 -1 -1 -1 -1 -1 -1 -0 -0 0 0 0 -0 -0 0 -0 0 -0 0 0 -0 -1 -0 -1 -1 0 0 0 -0 -0 -0 -0 -0 0 0 nan
nan -0 -0 -0 -1 -1 -0 -1 -1 -1 -1 -1 -1 -1 -1 -0 0 1 0 -0 -0 -0 -0 -0 -0 0 0 -0 -0 -1 -1 -1 0 0 0 0 -0 -0 0 -0 -0 -0 nan
nan -0 -0 -0 -0 -0 -0 -0 -1 -1 -0 -0 -0 -0 -1 -0 -0 0 -0 -0 -0 -0 -0 -0 -1 -1 -0 0 -0 -0 -1 -0 -1 -2 -0 0 1 -0 -0 0 0 -0 nan
nan -0 -0 -0 -0 -0 -0 0 -0 -0 -0 0 -0 -0 -0 -0 -0 -0 -0 -0 -0 0 -0 -0 -0 -0 -0 -0 -0 -0 -1 -1 -1 -1 -1 -1 -0 0 1 0 0 1 nan
nan -0 -0 -0 -0 -0 -0 0 -0 -0 -1 -0 -0 -0 -0 -0 -0 -0 -0 -0 -0 -0 -0 -0 -0 0 0 -1 0 0 -1 -1 -0 0 -0 -0 0 -0 -1 -0 0 1 nan
nan -0 -0 -0 -0 -0 -0 -0 -0 -0 -0 -1 -0 -0 -0 -0 -0 -0 -0 -0 -0 -0 -0 -0 -0 0 0 -0 -1 -0 0 0 -1 -1 -1 -0 -0 -1 -0 -0 -0 0 nan
nan -0 0 0 -0 -0 -0 -0 -0 -0 -0 -0 -0 -0 0 -0 -0 -0 -0 -0 -0 -0 -0 -0 -0 -0 -0 -0 -0 -1 -1 -0 1 0 -2 -1 0 -0 -1 -0 0 -0 nan
nan nan nan nan nan nan nan nan nan nan nan nan nan nan nan nan nan nan nan nan nan nan nan nan nan nan nan nan nan nan nan nan nan nan nan nan nan nan nan nan nan nan nan
Wind_Speed
3 3 3 3 4 4 3 4 5 5 4 3 2 1 1 1 2 3 3 2 2 2 3 6 8 7 6 5 5 4 5 6 8 8 8 6 4 5 7 7 7 6 6
4 3 3 3 3 3 4 5 5 5 4 3 2 1 1 1 2 3 3 1 4 5 8 7 6 5 4 4 4 3 4 7 8 9 6 5 4 4 6 6 5 5 5
2 0 4 4 3 3 4 5 6 5 4 3 3 2 2 2 3 3 1 3 6 7 6 4 3 3 4 4 2 2 3 5 8 9 7 4 4 4 5 4 4 4 4
4 3 2 5 3 5 5 6 6 6 6 4 4 3 3 2 3 2 1 3 4 3 3 2 3 4 4 4 3 2 3 5 7 8 6 5 7 5 0 2 3 3 3
4 2 0 3 5 5 5 6 7 7 7 6 5 4 3 3 3 2 2 3 5 5 4 5 5 6 7 6 5 4 5 5 6 7 7 7 7 3 2 0 1 1 2
4 3 1 3 4 5 5 7 7 8 9 8 7 6 6 5 4 4 3 4 6 6 7 8 7 6 8 8 7 7 6 6 6 6 7 6 5 4 2 2 1 0 1
3 1 1 1 4 4 5 6 8 9 9 9 10 10 9 7 6 5 6 7 7 8 8 9 8 6 7 8 9 9 10 9 8 7 7 7 6 5 5 4 3 2 2
1 3 3 3 4 7 7 7 7 9 10 11 11 11 11 10 9 8 8 10 10 10 10 10 10 9 8 9 10 10 11 11 10 10 9 10 8 7 7 6 5 4 3
1 2 3 5 6 6 8 8 8 9 11 12 13 13 13 13 13 12 12 11 12 13 14 12 11 11 10 11 12 12 13 13 12 12 11 12 11 9 9 8 7 6 6
3 5 6 7 8 10 10 10 11 12 12 13 14 15 15 16 16 16 15 15 14 15 16 16 15 12 13 13 14 15 15 15 15 15 14 13 12 11 11 11 10 9 8
8 8 8 9 10 12 12 13 14 15 15 15 16 17 17 18 19 19 19 18 17 17 17 18 18 17 15 16 17 18 19 20 19 18 17 15 15 14 14 13 12 12 11
9 10 11 12 12 13 15 16 17 18 18 19 18 20 21 21 22 21 21 20 20 20 19 19 20 20 21 20 20 21 22 22 22 21 21 18 18 17 16 16 15 14 14
11 13 14 14 15 16 16 17 18 20 21 22 23 23 24 24 25 25 25 24 24 23 23 22 23 24 25 25 23 24 25 25 24 24 23 22 21 20 19 19 18 17 17
12 14 16 17 17 18 19 20 21 21 23 25 25 26 27 27 27 27 26 26 27 27 27 26 26 26 27 27 27 28 27 28 28 27 26 25 24 24 23 22 21 20 19
15 17 18 20 22 23 24 24 25 25 25 26 27 28 29 30 30 30 31 29 28 28 29 30 30 30 30 29 30 31 32 31 30 30 29 27 27 27 26 25 24 23 22
16 20 22 23 25 26 27 27 28 29 30 29 29 29 31 32 33 32 32 33 32 31 31 32 33 33 34 33 33 33 35 35 34 32 33 31 30 30 30 29 28 27 25
18 21 23 25 26 28 29 29 29 29 30 30 31 32 32 33 34 35 35 34 34 35 33 33 32 33 36 37 38 36 36 37 38 37 36 35 34 34 33 33 32 30 29
18 20 22 23 24 24 25 27 28 28 28 29 29 31 32 34 34 35 36 37 35 35 37 37 32 33 35 35 38 40 40 39 38 38 40 39 38 38 38 37 37 35 34
17 20 22 23 23 24 24 23 23 24 25 26 27 27 27 29 32 34 34 34 35 36 36 36 37 38 30 38 36 38 41 42 42 40 40 41 41 42 42 41 40 39 38
17 19 20 20 22 23 21 21 20 19 19 20 20 20 22 24 25 28 30 30 30 32 34 35 36 38 35 36 38 40 42 45 44 44 43 43 44 43 45 45 44 44 43
15 17 18 20 22 24 22 23 20 17 13 11 11 12 13 13 14 17 21 23 24 27 28 29 30 32 36 35 33 36 38 51 40 44 45 47 45 44 45 44 46 48 46
16 16 17 19 21 22 19 18 17 18 15 13 12 11 11 11 10 13 15 16 16 19 20 21 24 27 30 29 29 30 33 34 37 48 44 42 43 42 44 46 46 47 47
14 16 17 18 19 18 16 16 15 16 16 13 14 13 11 11 11 12 12 12 11 13 16 17 20 23 25 26 27 24 19 21 23 25 29 30 34 33 33 35 40 46 50
12 15 16 15 16 17 17 15 15 15 17 17 16 16 13 11 10 11 12 13 14 17 19 19 18 20 21 24 25 28 32 31 27 31 21 21 25 26 26 28 34 35 42
11 13 14 14 14 15 15 16 15 13 13 14 14 13 12 10 10 11 12 14 16 17 18 18 18 20 22 24 26 27 30 34 35 30 34 33 33 27 37 37 38 38 38
9 12 13 13 13 13 14 15 16 15 15 15 14 13 12 11 10 11 12 12 12 14 16 18 20 23 25 28 30 31 32 29 32 27 29 32 31 31 34 34 33 39 41
Wind_Direction
151 171 254 220 186 180 189 193 190 194 199 210 234 244 271 301 316 325 323 334 89 95 127 139 150 143 130 133 122 128 128 151 168 154 142 126 112 109 102 87 74 75 89
147 153 218 262 216 222 202 202 200 203 209 222 226 217 269 305 319 330 332 103 104 94 113 115 137 159 174 153 123 116 127 151 167 178 163 132 108 116 108 73 59 72 97
109 133 206 274 265 254 235 219 215 213 216 222 230 239 274 306 318 328 337 139 123 105 113 128 157 171 172 176 178 148 149 162 164 165 160 153 133 141 132 44 51 63 85
79 56 111 243 277 258 243 246 235 230 238 228 236 242 259 289 308 314 279 168 152 152 162 180 237 237 213 220 227 213 173 172 178 181 186 182 165 175 44 21 47 61 89
66 71 223 233 239 252 249 245 244 246 249 255 253 248 246 275 284 269 231 202 190 198 237 251 287 258 238 234 234 223 197 189 191 192 185 175 167 205 301 353 72 78 108
128 99 97 283 281 267 257 251 251 253 256 258 261 261 260 275 275 268 247 227 222 227 233 250 281 273 245 243 235 221 203 193 190 190 188 195 224 259 253 252 251 179 164
180 230 259 278 275 276 268 265 253 251 256 261 265 265 262 265 276 272 259 253 246 242 238 255 274 274 251 246 232 222 211 213 221 221 222 227 240 245 239 242 244 233 213
187 235 240 261 245 261 268 268 262 258 263 264 261 262 261 261 266 272 264 260 255 251 253 261 265 266 257 247 240 226 221 228 232 234 244 238 252 248 238 241 247 245 237
228 269 257 256 246 255 268 266 269 264 261 259 258 259 257 254 258 262 264 267 264 257 256 259 263 260 257 249 246 237 231 234 239 243 246 246 252 250 241 241 245 246 245
294 291 282 275 271 263 270 263 264 267 268 259 259 259 259 259 258 259 262 263 266 264 257 255 257 261 257 251 247 246 241 242 244 248 251 252 251 250 249 245 247 249 250
294 296 298 289 279 272 268 265 262 261 264 262 260 259 258 260 262 262 262 264 264 264 261 254 253 255 258 253 249 246 247 247 250 253 253 253 250 251 252 248 247 249 251
299 304 306 306 298 287 278 270 266 264 260 261 263 261 257 258 260 261 262 263 264 264 262 257 253 254 253 253 251 248 247 252 251 254 256 255 254 252 250 248 248 249 250
317 319 315 309 304 298 291 282 272 266 261 258 258 256 260 258 259 259 261 262 262 262 262 260 256 253 253 253 253 253 252 251 255 256 256 253 253 254 252 251 252 249 248
319 318 316 312 306 300 296 293 288 278 269 264 263 263 262 260 259 256 258 259 260 261 262 262 260 258 257 256 255 255 256 255 254 256 256 255 252 252 252 251 251 252 252
319 316 314 311 306 302 298 294 289 284 279 272 266 263 264 263 262 260 258 257 257 257 259 261 262 262 262 260 258 257 256 257 258 256 255 253 253 251 251 251 251 251 252
321 320 319 317 312 307 302 297 290 284 279 275 271 268 264 263 263 262 261 258 263 261 259 259 263 265 265 264 262 260 260 260 259 258 257 255 253 253 251 250 252 252 252
326 326 325 321 317 313 307 302 297 290 283 276 271 267 265 263 262 262 262 260 255 260 264 264 264 265 266 266 264 263 261 261 262 259 259 258 256 254 253 251 251 252 251
327 328 327 324 320 314 308 302 297 294 290 284 277 271 266 263 261 262 262 262 261 258 258 263 272 268 267 269 265 267 265 264 262 263 261 259 258 256 255 254 253 251 251
327 329 329 329 329 329 323 314 306 300 296 293 288 283 276 267 261 259 262 264 263 262 261 261 260 260 271 267 273 268 267 265 265 264 263 263 262 259 258 256 253 253 252
328 332 335 338 339 336 333 330 325 317 307 305 303 297 287 275 266 259 260 262 264 264 264 264 264 265 267 269 272 275 274 269 266 265 265 267 265 262 260 258 256 252 252
326 335 340 344 344 348 350 353 359 6 3 353 342 332 321 300 280 266 265 267 268 265 268 269 270 269 268 268 274 271 274 266 266 266 267 267 267 266 263 257 257 257 253
333 339 340 341 345 351 358 358 357 356 358 359 357 351 336 322 301 281 274 276 270 266 270 273 272 271 266 267 270 276 274 270 271 267 267 269 269 269 266 263 263 260 257
337 342 342 340 340 347 351 348 347 351 354 355 355 352 334 326 309 295 281 276 268 268 275 275 270 269 271 270 265 265 272 273 271 260 262 277 273 268 272 263 265 264 261
342 348 346 343 340 341 349 347 345 346 346 352 345 343 337 327 317 300 290 285 282 279 278 275 270 267 267 272 274 267 263 271 282 282 279 286 272 278 284 286 285 273 272
340 346 346 345 339 340 340 339 343 339 342 337 336 336 329 315 306 299 293 290 288 284 280 276 271 269 271 276 278 280 278 277 277 272 280 271 274 273 288 291 284 278 273
330 344 348 350 352 346 346 348 349 347 347 341 336 335 337 332 319 312 312 305 300 292 286 280 277 275 274 274 277 277 275 273 273 271 272 273 275 275 283 285 281 274 269
Height
1552 1552 1551 1551 1552 1552 1552 1553 1553 1554 1554 1554 1554 1554 1554 1554 1554 1554 1554 1553 1554 1554 1554 1555 1556 1556 1556 1556 1557 1556 1556 1557 1557 1557 1557 1557 1557 1556 1556 1556 1555 1554 1554
1551 1552 1552 1551 1551 1552 1552 1552 1553 1553 1554 1554 1554 1554 1554 1554 1554 1554 1554 1554 1554 1554 1555 1556 1556 1557 1557 1557 1557 1557 1557 1557 1558 1558 1558 1558 1558 1558 1557 1557 1556 1555 1555
1551 1551 1552 1551 1551 1552 1552 1552 1553 1554 1554 1554 1554 1554 1554 1554 1554 1554 1554 1554 1555 1555 1556 1557 1557 1557 1557 1557 1558 1558 1558 1558 1558 1558 1559 1559 1558 1558 1558 1557 1557 1556 1555
1551 1551 1552 1551 1551 1552 1553 1553 1553 1553 1554 1554 1554 1554 1554 1554 1554 1554 1554 1555 1555 1556 1557 1557 1558 1558 1558 1558 1558 1558 1558 1558 1559 1559 1559 1559 1559 1559 1558 1558 1557 1556 1556
1552 1551 1551 1551 1550 1551 1552 1552 1552 1553 1553 1554 1553 1553 1553 1554 1554 1554 1555 1555 1556 1556 1557 1557 1557 1557 1557 1557 1558 1558 1558 1558 1558 1559 1559 1559 1559 1559 1559 1558 1557 1557 1556
1551 1551 1551 1550 1550 1550 1551 1551 1552 1552 1553 1553 1553 1553 1553 1553 1553 1553 1554 1555 1556 1556 1556 1556 1556 1556 1556 1556 1557 1557 1558 1558 1558 1559 1559 1559 1559 1559 1558 1558 1557 1557 1556
1550 1550 1549 1549 1549 1549 1549 1550 1550 1551 1551 1551 1552 1552 1553 1553 1552 1553 1553 1554 1554 1555 1555 1555 1555 1555 1555 1556 1556 1556 1557 1558 1558 1558 1559 1558 1558 1558 1558 1557 1557 1557 1556
1549 1549 1548 1548 1548 1548 1548 1548 1548 1549 1550 1550 1550 1551 1551 1552 1552 1552 1552 1552 1553 1553 1553 1553 1553 1553 1553 1554 1554 1555 1556 1556 1557 1557 1557 1557 1557 1557 1557 1556 1556 1556 1556
1549 1549 1548 1547 1547 1547 1547 1546 1546 1547 1547 1547 1548 1548 1549 1549 1549 1549 1550 1550 1551 1551 1551 1551 1552 1551 1552 1552 1553 1553 1554 1554 1555 1555 1555 1555 1555 1555 1555 1555 1555 1555 1555
1548 1548 1548 1547 1546 1546 1545 1545 1545 1545 1544 1544 1545 1546 1546 1546 1546 1546 1547 1547 1548 1548 1548 1549 1550 1549 1550 1550 1551 1551 1552 1552 1552 1553 1553 1553 1553 1553 1553 1553 1553 1553 1553
1547 1547 1546 1546 1545 1544 1544 1543 1543 1542 1542 1541 1542 1542 1542 1542 1543 1543 1543 1544 1544 1545 1545 1545 1546 1547 1547 1547 1548 1548 1549 1549 1549 1550 1550 1550 1550 1551 1551 1551 1551 1551 1551
1546 1545 1544 1544 1543 1542 1541 1541 1540 1539 1539 1538 1538 1538 1538 1538 1538 1539 1539 1540 1541 1541 1541 1542 1542 1543 1544 1544 1544 1544 1544 1545 1545 1546 1546 1547 1547 1548 1548 1548 1548 1548 1548
1545 1544 1542 1541 1540 1539 1538 1537 1536 1535 1534 1534 1534 1533 1533 1533 1533 1534 1534 1535 1536 1537 1537 1538 1538 1538 1538 1539 1540 1540 1540 1540 1540 1541 1541 1543 1543 1544 1544 1545 1545 1545 1545
1543 1541 1540 1539 1537 1536 1535 1534 1533 1532 1531 1530 1529 1528 1528 1528 1527 1528 1529 1530 1531 1532 1532 1532 1532 1533 1533 1534 1535 1535 1535 1535 1536 1535 1536 1538 1538 1539 1540 1541 1541 1541 1541
1540 1539 1537 1536 1534 1532 1531 1530 1528 1527 1526 1524 1524 1523 1522 1522 1522 1522 1523 1523 1524 1526 1527 1526 1527 1527 1528 1528 1529 1529 1530 1530 1530 1530 1530 1532 1533 1534 1535 1536 1536 1537 1537
1538 1536 1534 1531 1529 1526 1524 1523 1521 1520 1519 1518 1517 1517 1516 1516 1515 1516 1516 1517 1518 1519 1520 1520 1520 1521 1521 1522 1522 1523 1524 1524 1524 1525 1525 1526 1527 1528 1529 1530 1531 1532 1533
1535 1533 1530 1527 1524 1521 1518 1515 1513 1512 1510 1509 1509 1509 1508 1508 1509 1509 1508 1509 1511 1513 1513 1513 1514 1514 1514 1515 1514 1515 1516 1517 1517 1518 1519 1519 1521 1521 1522 1523 1524 1525 1527
1532 1530 1527 1524 1521 1517 1513 1510 1507 1504 1502 1501 1500 1499 1499 1500 1500 1501 1501 1502 1504 1505 1505 1506 1507 1506 1507 1507 1507 1508 1508 1509 1509 1510 1511 1512 1513 1514 1515 1516 1517 1518 1519
1529 1526 1524 1520 1516 1512 1508 1505 1502 1499 1496 1494 1492 1491 1491 1491 1492 1492 1493 1495 1497 1497 1497 1498 1499 1500 1499 1499 1499 1500 1500 1499 1501 1502 1502 1503 1505 1505 1506 1507 1509 1510 1511
1527 1524 1521 1517 1513 1509 1505 1501 1498 1495 1492 1489 1487 1485 1483 1483 1484 1484 1486 1487 1489 1489 1490 1491 1492 1492 1492 1493 1492 1491 1491 1490 1491 1491 1492 1494 1494 1496 1497 1498 1500 1501 1502
1525 1521 1518 1514 1511 1506 1501 1497 1494 1492 1490 1488 1485 1482 1480 1478 1478 1479 1479 1481 1482 1482 1483 1484 1485 1485 1485 1487 1487 1484 1484 1481 1481 1482 1483 1483 1484 1485 1486 1487 1488 1490 1492
1522 1519 1516 1513 1509 1504 1500 1497 1495 1492 1489 1486 1484 1482 1479 1478 1477 1476 1476 1476 1477 1477 1478 1478 1479 1478 1478 1481 1481 1480 1477 1477 1473 1472 1473 1472 1473 1475 1474 1475 1477 1479 1481
1520 1517 1514 1510 1508 1504 1500 1497 1495 1492 1488 1485 1483 1481 1478 1477 1476 1474 1474 1473 1473 1473 1472 1473 1473 1473 1472 1473 1476 1477 1474 1469 1467 1463 1464 1464 1465 1464 1465 1466 1465 1466 1470
1518 1515 1512 1509 1506 1503 1499 1496 1493 1490 1487 1484 1482 1479 1478 1476 1474 1473 1472 1470 1470 1469 1468 1468 1467 1468 1467 1466 1468 1469 1468 1468 1465 1461 1459 1456 1459 1459 1458 1458 1458 1458 1459
1516 1514 1511 1508 1505 1502 1498 1496 1493 1490 1487 1483 1481 1478 1476 1474 1472 1470 1469 1467 1466 1465 1464 1463 1463 1462 1462 1461 1461 1462 1461 1459 1459 1459 1451 1453 1451 1450 1449 1452 1451 1449 1450
1514 1512 1509 1506 1503 1501 1498 1495 1492 1488 1485 1482 1479 1476 1474 1472 1470 1468 1465 1464 1462 1461 1460 1459 1458 1458 1456 1455 1454 1454 1454 1453 1449 1451 1448 1445 1443 1443 1441 1441 1443 1441 1439